Location: Maiden
(35.5760°N, 81.2120°W)
Time: 10:17:33
(UTC-04:00)

Cosmos 2026 Rocket - Pass Details

Date: 14 June 2018
Orbit: 940 x 1001 km, 82.9° (Epoch: 22 September)

Event Time Altitude Azimuth Distance (km) Brightness Sun altitude
Rises 21:07:01 0° 359° (N) 3,611 7.5 -5.2°
Reaches altitude 10° 21:09:35 10° 4° (N) 2,661 6.7 -5.6°
Maximum altitude 21:15:30 53° 81° (E) 1,145 4.2 -6.6°
Drops below altitude 10° 21:21:23 10° 157° (SSE) 2,656 5.8 -7.6°
Enters shadow 21:23:10 - 161° (SSE) 3,312 6.3 -7.9°
